Torna al catalogo

STARLINK-31824

AttivoComunicazioniVLEO
NORAD 59804·PAYLOAD·🇺🇸 United States

Lanciato May 18, 2024 da Cape Canaveral Space Force Station

Loading…

Prossimi Passaggi (prossime 24 ore)

TLE

AggiornatoSource: CelesTrak SupGP

Epoca: Sep 14, 2026, 22:52 UTC

1 59804C 24093Y   26257.95326389  .00004560  00000+0  16529-3 0  2578
2 59804  42.9996 220.2738 0001295 262.2946 254.6502 15.27550080    17

Traccia STARLINK-31824 in tempo reale con AllMySat

Download on the App Store